User: anonymous   Login
Location: Ash Swamp
(41.5170°N, 74.6157°W)
Time: 11:53:49
(UTC+00:00)
Language:

Cosmos 2058 - Orbit

View from above orbital plane
View from above orbital plane
View from above satellite
View from above satellite

Ground track
Ground track

The orbit data is extracted from the following two-line orbital elements,

1 20465U 90010A   20270.84541913 +.00000215 +00000-0 +15857-4 0  9991
2 20465 082.4918 175.7863 0014306 214.9208 145.1078 14.98047373643508
Epoch (UTC): 26 September 2020 20:17:24
Eccentricity: 0.0014306
inclination: 82.4918°
perigee height: 563 km
apogee height: 583 km
right ascension of ascending node: 175.7863°
argument of perigee: 214.9208°
revolutions per day: 14.98047373
mean anomaly at epoch: 145.1078°
orbit number at epoch: 64350

The dashed part of the orbit path shows where the satellite is in the earth's shadow,  

DLR